Location: Chinna Viriv?da
(16.5281°N, 81.0493°E)
Time: 10:44:13
(UTC+00:00)

USA 234 - Pass Details

Date: 14 April 2026
Orbit: 1102 x 1106 km, 123.0° (Epoch: 4 January)

Event Time Altitude Azimuth Distance (km) Brightness Sun altitude
Rises 22:06:54 0° 125° (SE) 3,907 6.5 -31.6°
Reaches altitude 10° 22:09:30 10° 119° (ESE) 2,950 5.9 -31.1°
Maximum altitude 22:15:37 44° 49° (NE) 1,472 4.2 -29.7°
Drops below altitude 10° 22:21:43 10° 339° (NNW) 2,953 5.5 -28.3°
Sets 22:24:18 0° 333° (NNW) 3,911 6.1 -27.8°
